Weather History for EGUL - July, 2014

Change the Weather History Date:

Tuesday, July 22, 2014

  Actual Average (EGSC) Record (EGSC)
Temperature  
Mean Temperature 66 °F -  
Max Temperature 72 °F 71 °F 89 °F (2013)
Min Temperature 58 °F 56 °F 50 °F (2011)
Growing Degree Days 16 (Base 50)    
Moisture  
Dew Point 62 °F    
Average Humidity 91    
Maximum Humidity 100    
Minimum Humidity 78    
Precipitation  
Precipitation 0.00 in - - ()
Sea Level Pressure  
Sea Level Pressure 30.20 in    
Wind  
Wind Speed 6 mph ()    
Max Wind Speed 12 mph    
Max Gust Speed 16 mph    
Visibility 6.2 miles    
Events      
Averages and records for this station are not official NWS values.
T = Trace of Precipitation, MM = Missing Value Source: Averaged Metar Reports

Daily Weather History Graph

Daily Weather History Graph

Search for Another Location

Airport or City:

Trip Planner

Search our weather history database for the weather conditions in past years. The results will help you decide how hot, cold, wet, or windy it might be!

Date:

Astronomy

Jul. 22, 2014 Rise Set
Actual Time 5:02 AM BST 9:04 PM BST
Civil Twilight 4:18 AM BST 9:49 PM BST
Nautical Twilight 3:13 AM BST 10:52 PM BST
Astronomical Twilight 1:36 AM BST 12:31 AM BST
Moon 1:32 AM BST (7/22) 5:24 PM BST (7/22)
Length of Visible Light 17h 31m
Length of Day
16h 02m
Waning Crescent, 18% of the Moon is Illuminated
Jul 22
Waning Crescent
Jul 26
New
Aug 4
First Quarter
Aug 10
Full
Aug 17
Last Quarter

Hourly Weather History & Observations

Time (BST) Temp. Dew Point Humidity Pressure Visibility Wind Dir Wind Speed Gust Speed Precip Events Conditions
12:58 AM 60.3 °F 60.3 °F 100% 30.18 in 6.2 mi Variable 4.6 mph - N/A   Overcast
1:08 AM 60.8 °F 60.8 °F 100% 30.16 in 6.2 mi North 3.5 mph - N/A   Overcast
1:36 AM 60.8 °F 60.8 °F 100% 30.17 in 6.2 mi North 6.9 mph - N/A   Overcast
1:58 AM 60.1 °F 60.1 °F 100% 30.18 in 6.2 mi North 5.8 mph - N/A   Overcast
2:58 AM 60.4 °F 60.4 °F 100% 30.18 in 6.2 mi North 3.5 mph - N/A   Overcast
3:31 AM 60.8 °F 60.8 °F 100% 30.18 in 6.2 mi North 5.8 mph - N/A   Overcast
3:58 AM 60.3 °F 60.3 °F 100% 30.18 in 6.2 mi NNW 5.8 mph - N/A   Overcast
4:58 AM 60.3 °F 60.3 °F 100% 30.18 in 6.2 mi North 5.8 mph - N/A   Overcast
6:24 AM 60.8 °F 60.8 °F 100% 30.19 in 6.2 mi North 4.6 mph - N/A   Overcast
6:58 AM 61.2 °F 61.2 °F 100% 30.20 in 6.2 mi North 8.1 mph - N/A   Overcast
7:58 AM 61.7 °F 61.7 °F 100% 30.21 in 6.2 mi North 6.9 mph - N/A   Overcast
8:58 AM 63.1 °F 62.2 °F 97% 30.21 in 6.2 mi NNE 10.4 mph - N/A   Overcast
9:07 AM 64.4 °F 62.6 °F 94% 30.21 in 6.2 mi North 5.8 mph - N/A   Overcast
9:58 AM 66.9 °F 62.8 °F 87% 30.22 in 6.2 mi Variable 6.9 mph - N/A   Mostly Cloudy
10:01 AM 68.0 °F 62.6 °F 83% 30.20 in 6.2 mi NNW 10.4 mph - N/A   Scattered Clouds
10:37 AM 68.0 °F 62.6 °F 83% 30.20 in 6.2 mi NE 6.9 mph - N/A   Mostly Cloudy
10:40 AM 68.0 °F 62.6 °F 83% 30.20 in 6.2 mi Variable 5.8 mph - N/A   Mostly Cloudy
10:58 AM 68.7 °F 63.7 °F 84% 30.21 in 6.2 mi NE 11.5 mph - N/A   Overcast
11:21 AM 68.0 °F 62.6 °F 83% 30.21 in 6.2 mi NE 9.2 mph 16.1 mph N/A   Scattered Clouds
11:40 AM 68.0 °F 62.6 °F 83% 30.21 in 6.2 mi NNE 10.4 mph - N/A   Mostly Cloudy
11:58 AM 67.8 °F 63.7 °F 87% 30.22 in 6.2 mi NNE 10.4 mph - N/A   Overcast
12:58 PM 69.4 °F 64.6 °F 84% 30.22 in 6.2 mi NE 8.1 mph - N/A   Overcast
1:58 PM 70.0 °F 64.8 °F 83% 30.22 in 6.2 mi NNE 8.1 mph - N/A   Mostly Cloudy
2:08 PM 71.6 °F 64.4 °F 78% 30.21 in 6.2 mi NNE 10.4 mph - N/A   Mostly Cloudy
2:12 PM 71.6 °F 64.4 °F 78% 30.21 in 6.2 mi NE 10.4 mph - N/A   Scattered Clouds
2:58 PM 71.6 °F 65.1 °F 80% 30.21 in 6.2 mi NNE 9.2 mph - N/A   Partly Cloudy
3:58 PM 72.5 °F 65.7 °F 79% 30.20 in 6.2 mi NNE 10.4 mph - N/A   Partly Cloudy
4:58 PM 72.0 °F 64.8 °F 78% 30.21 in 6.2 mi NNE 8.1 mph - N/A   Clear
6:58 PM 69.4 °F 64.8 °F 85% 30.21 in 6.2 mi NE 6.9 mph - N/A   Clear
7:58 PM 67.1 °F 64.8 °F 92% 30.22 in 6.2 mi NNE 8.1 mph - N/A   Clear
8:58 PM 63.7 °F 63.7 °F 100% 30.23 in 6.2 mi Variable 5.8 mph - N/A   Clear
9:58 PM 61.5 °F 61.5 °F 100% 30.24 in 6.2 mi North 4.6 mph - N/A   Clear
10:58 PM 59.9 °F 59.9 °F 100% 30.24 in 6.2 mi North 4.6 mph - N/A   Clear
11:58 PM 58.8 °F 58.8 °F 100% 30.24 in 6.2 mi North 4.6 mph - N/A   Clear